TimeEDT,TemperatureF,Dew PointF,Humidity,Sea Level PressureIn,VisibilityMPH,Wind Direction,Wind SpeedMPH,Gust SpeedMPH,PrecipitationIn,Events,Conditions,WindDirDegrees,DateUTC
12:15 AM,39.2,28.4,65,29.70,10.0,Calm,Calm,-,N/A,,Clear,0,2013-03-25 04:15:00
12:35 AM,37.4,30.2,75,29.70,10.0,Calm,Calm,-,N/A,,Clear,0,2013-03-25 04:35:00
12:55 AM,37.4,30.2,75,29.70,10.0,Calm,Calm,-,N/A,,Clear,0,2013-03-25 04:55:00
1:15 AM,37.4,30.2,75,29.69,10.0,Calm,Calm,-,N/A,,Clear,0,2013-03-25 05:15:00
1:35 AM,37.4,30.2,75,29.70,10.0,Calm,Calm,-,N/A,,Mostly Cloudy,0,2013-03-25 05:35:00
1:55 AM,37.4,30.2,75,29.69,10.0,Calm,Calm,-,N/A,,Overcast,0,2013-03-25 05:55:00
2:15 AM,39.2,28.4,65,29.69,10.0,Calm,Calm,-,N/A,,Mostly Cloudy,0,2013-03-25 06:15:00
2:35 AM,39.2,26.6,61,29.68,10.0,Calm,Calm,-,N/A,,Overcast,0,2013-03-25 06:35:00
2:55 AM,39.2,26.6,61,29.67,10.0,Calm,Calm,-,N/A,,Overcast,0,2013-03-25 06:55:00
3:15 AM,39.2,26.6,61,29.66,10.0,ENE,3.5,-,N/A,,Overcast,70,2013-03-25 07:15:00
3:35 AM,39.2,26.6,61,29.64,10.0,Calm,Calm,-,N/A,,Overcast,0,2013-03-25 07:35:00
3:55 AM,39.2,28.4,65,29.63,10.0,NE,3.5,-,N/A,,Overcast,40,2013-03-25 07:55:00
4:15 AM,39.2,28.4,65,29.62,10.0,NE,4.6,-,N/A,,Overcast,40,2013-03-25 08:15:00
4:35 AM,39.2,28.4,65,29.62,10.0,NNE,4.6,-,N/A,,Overcast,30,2013-03-25 08:35:00
4:55 AM,39.2,28.4,65,29.61,10.0,NNE,5.8,-,N/A,,Overcast,30,2013-03-25 08:55:00
5:15 AM,39.2,28.4,65,29.61,10.0,NE,5.8,-,N/A,,Overcast,40,2013-03-25 09:15:00
5:35 AM,39.2,26.6,61,29.62,10.0,NE,5.8,-,N/A,,Overcast,40,2013-03-25 09:35:00
5:55 AM,39.2,26.6,61,29.62,10.0,NE,5.8,-,N/A,,Overcast,40,2013-03-25 09:55:00
6:15 AM,39.2,26.6,61,29.61,10.0,NE,6.9,-,N/A,,Overcast,40,2013-03-25 10:15:00
6:35 AM,39.2,26.6,61,29.61,10.0,NE,6.9,-,N/A,,Overcast,50,2013-03-25 10:35:00
6:45 AM,37.4,24.8,60,29.61,10.0,ENE,12.7,-,N/A,,Overcast,60,2013-03-25 10:45:00
7:45 AM,37.4,24.8,60,29.61,25.0,ENE,8.1,15.0,N/A,,Overcast,60,2013-03-25 11:45:00
8:45 AM,37.4,26.6,65,29.63,25.0,NE,8.1,-,N/A,,Overcast,50,2013-03-25 12:45:00
9:45 AM,39.2,26.6,61,29.60,7.0,NE,13.8,20.7,N/A,,Overcast,50,2013-03-25 13:45:00
10:45 AM,37.4,37.4,100,29.59,2.0,ENE,11.5,21.9,N/A,Snow,Light Snow,60,2013-03-25 14:45:00
11:45 AM,33.8,30.2,87,29.58,2.0,SE,5.8,-,N/A,Snow,Light Snow,130,2013-03-25 15:45:00
12:45 PM,37.4,32.0,81,29.54,4.0,East,10.4,16.1,N/A,,Overcast,100,2013-03-25 16:45:00
1:45 PM,41.0,28.4,61,29.51,7.0,East,23.0,34.5,N/A,,Overcast,80,2013-03-25 17:45:00
2:45 PM,39.2,30.2,70,29.50,5.0,ENE,12.7,18.4,N/A,Rain,Light Rain,70,2013-03-25 18:45:00
3:45 PM,37.4,32.0,81,29.49,7.0,East,4.6,-,N/A,,Overcast,80,2013-03-25 19:45:00
4:45 PM,37.4,33.8,87,29.49,5.0,East,4.6,-,N/A,Rain,Light Rain,100,2013-03-25 20:45:00
5:45 PM,37.4,33.8,87,29.50,5.0,Calm,Calm,-,N/A,Rain,Light Rain,0,2013-03-25 21:45:00
6:45 PM,37.4,35.6,93,29.51,5.0,Calm,Calm,-,N/A,Rain,Light Rain,0,2013-03-25 22:45:00
7:45 PM,37.4,33.8,87,29.53,7.0,NNE,5.8,-,N/A,,Overcast,20,2013-03-25 23:45:00
8:45 PM,37.4,33.8,87,29.57,7.0,Calm,Calm,-,N/A,,Overcast,0,2013-03-26 00:45:00
9:45 PM,37.4,32.0,81,29.59,7.0,ESE,5.8,-,N/A,,Overcast,120,2013-03-26 01:45:00
10:55 PM,37.4,33.8,87,29.59,10.0,Calm,Calm,-,N/A,,Overcast,0,2013-03-26 02:55:00
11:15 PM,41.0,30.2,65,29.60,10.0,North,6.9,-,N/A,,Overcast,360,2013-03-26 03:15:00
11:35 PM,41.0,30.2,65,29.61,10.0,North,8.1,-,N/A,,Overcast,10,2013-03-26 03:35:00
11:55 PM,41.0,32.0,70,29.61,10.0,North,4.6,-,N/A,,Overcast,360,2013-03-26 03:55:00